Tropical Cyclones
[Index]
Main Index Home Page Stock Weather Photos Extreme Storms Discussion Storm News and Storm Chasing Reports Tropical Cyclones / Hurricanes / Typhoons Weather Data and Links Wild Fires / Bushfires Weather Observation Techniques Weather Picture Catalogue Tornado Pictures and Reports Stock Video Footage and DVDs for sale
Season 1979-1980 Tropical Cyclone VIOLA Track Map
Season 1979-1980 Summaries: [BoM-AU] [JTWC-AU] [JTWC-SIO] [JTWC-SPAC] [JTWC-SH]
<<- Previous TC | BoM 1979-1980 Season | Next TC ->>

click for intensity scale information  Lat/long Grid: Show Hide

 Date Labels: Show Hide

Bureau of Meteorology Tropical Cyclone Data

Name: VIOLA
Number: 595 / 197980_02

09 Dec 1979 00:00 UTC to 19 Dec 1979 00:00 UTC

    date/time    lat    long    hPa   cat  kts
1979-12-09 00    8.0    93.0   1006                     
1979-12-09 06    8.2    92.9   1005                     
1979-12-09 12    8.4    92.9   1005                     
1979-12-09 18    8.6    92.8   1004                     
1979-12-10 00    8.8    92.8   1004                     
1979-12-10 06    9.0    92.7   1003                     
1979-12-10 12    9.2    92.6   1001                     
1979-12-10 18    9.4    92.5   1000                     
1979-12-11 00    9.6    92.4    998                     
1979-12-11 06    9.9    92.2    996                     
1979-12-11 12   10.2    91.8    994    1                
1979-12-11 18   10.5    91.4    991    1                
1979-12-12 00   10.7    90.9    988    1                
1979-12-12 06   10.7    90.3    987    1                
1979-12-12 12   10.6    89.8    985    2                
1979-12-12 18   10.3    89.2    984    2                
1979-12-13 00   10.2    88.6    982    2                
1979-12-13 06   10.0    88.3    980    2                
1979-12-13 12    9.8    87.9    978    2                
1979-12-13 18    9.7    87.7    976    2                
1979-12-14 00    9.5    87.3    975    2                
1979-12-14 06    9.4    87.0    973    2                
1979-12-14 12    9.2    86.8    970    3                
1979-12-14 18    9.2    86.7    968    3                
1979-12-15 00    9.1    86.5    965    3                
1979-12-15 06    9.1    86.2    963    3                
1979-12-15 12    9.1    85.9    960    3                
1979-12-15 18    9.2    85.7    958    3                
1979-12-16 00    9.4    85.4    955    4                
1979-12-16 06    9.6    85.0    948    4                
1979-12-16 12   10.0    84.6    940    4                
1979-12-16 18   10.3    84.1    930    4                
1979-12-17 00   10.6    83.5    931    4                
1979-12-17 06   10.9    82.8    932    4                
1979-12-17 12   11.1    82.0    933    4                
1979-12-17 18   11.3    81.3    935    4                
1979-12-18 00   11.6    80.4    936    4                
1979-12-18 06   11.8    79.5    938    4                
1979-12-18 12   12.0    78.4    939    4                
1979-12-18 18   12.1    77.5    941    4                
1979-12-19 00   12.2    76.4    942    4                
Winds are 10-min average.

Tropical cyclone tracks developed by Michael Bath using data from the Bureau of Meteorology and Google Maps.


[Australian Severe Weather index] [Copyright Notice] [Email Contacts] [Search This Site] [Privacy Policy]
Document: tropical_cyclone_viola.htm Updated: 30 May 2013